Location: *
(18.5200°S, 46.4500°E)
Time: 18:04:15
(UTC+00:00)

Cosmos 2233 Rocket - Pass Details

Date: 19 July 2019
Orbit: 953 x 991 km, 82.9° (Epoch: 24 August)

Event Time Altitude Azimuth Distance (km) Brightness Sun altitude
Rises 15:47:37 0° 177° (S) 3,667 6.8 -17.1°
Reaches altitude 10° 15:50:12 10° 172° (S) 2,721 6.1 -17.7°
Maximum altitude 15:56:15 53° 95° (E) 1,187 4.1 -19.0°
Drops below altitude 10° 16:02:19 10° 20° (NNE) 2,722 6.3 -20.4°
Sets 16:04:53 0° 15° (NNE) 3,669 7.0 -21.0°
